Regional Weather Roundup
Issued by NWS

Home | Current Version | Previous Version | Text Only | Print | Product List | Glossary On
Versions: 1 2 3 4 5 6 7 8 9 10 11 12 13 14 15 16 17 18 19 20 21 22 23 24 25 26 27 28 29 30 31 32 33 34 35 36 37 38 39 40 41 42 43 44 45 46 47 48 49 50
000
ASUS43 KTOP 221908
RWRKS

WEATHER ROUNDUP FOR KANSAS
NATIONAL WEATHER SERVICE GOODLAND KS
200 PM CDT FRI SEP 22 2017

NOTE:  "FAIR" INDICATES FEW OR NO CLOUDS BELOW 12,000 FEET WITH NO
SIGNIFICANT WEATHER AND/OR OBSTRUCTIONS TO VISIBILITY.

KSZ001>006-013>018-027>032-041>047-222000-
NORTHWEST KANSAS

CITY           SKY/WX    TMP DP  RH WIND       PRES   REMARKS
GOODLAND       PTSUNNY   88  46  23 S29G39    29.77F
HAYS           MOSUNNY   96  56  26 S30G36    29.79F
HILL CITY      PTSUNNY   97  57  26 S24G37    29.77F HX  96
RUSSELL        MOSUNNY   97  61  30 S28G35    29.80F HX  97
$$

KSZ061>065-074>080-084>089-222000-
SOUTHWEST KANSAS

CITY           SKY/WX    TMP DP  RH WIND       PRES   REMARKS
DODGE CITY     SUNNY     96  53  23 S25G35    29.85F
ELKHART          N/A     88  64  44 S17         N/A
GARDEN CITY    MOSUNNY   90  53  28 S28G36    29.83F
GREAT BEND     SUNNY     95  64  35 S20G32    29.83F HX  97
LIBERAL        MOSUNNY   91  59  33 S25       29.84F
PRATT          SUNNY     91  64  39 S21G29    29.87F
$$

KSZ066>073-081>083-090>101-222000-
SOUTHEAST KANSAS

CITY           SKY/WX    TMP DP  RH WIND       PRES   REMARKS
CHANUTE        SUNNY     88  69  53 S21G26    29.96F
COFFEYVILLE    SUNNY     88  69  53 S18G25    29.95F
HUTCHINSON     SUNNY     93  69  45 S22G29    29.87F HX  98
MEDICINE LODGE   N/A     91  66  43 S18G28    29.85F
NEWTON         MOSUNNY   90  69  50 S22       29.90F
WICHITA INTL   MOSUNNY   92  70  48 S23G35    29.89F HX  97
WICHITA JABRA  SUNNY     91  70  49 S20G28    29.90F HX  96
WICHITA MCCONL SUNNY     91  67  45 S25       29.90F HX  95
WINFIELD       SUNNY     92  70  48 S20G28    29.93F HX  97
$$

KSZ007>012-019>026-033>040-048>060-102>105-222000-
NORTHEAST KANSAS

CITY           SKY/WX    TMP DP  RH WIND       PRES   REMARKS
CONCORDIA      SUNNY     90  69  50 S18G30    29.83F
EMPORIA        SUNNY     89  70  53 S17G29    29.92F
LAWRENCE       SUNNY     90  71  53 SE16      29.93F HX  96
MANHATTAN      SUNNY     95  68  41 S22G28    29.85F HX  99
MARYSVILLE     SUNNY    N/A N/A N/A S15G23    29.86F
OLATHE IND     SUNNY     88  71  57 S10G22    29.97F
OLATHE EXE     SUNNY     86  71  60 S12G21    29.97F
SALINA         SUNNY     96  66  37 S17G33    29.85S HX  99
TOPEKA BILLARD SUNNY     91  72  53 S14G24    29.91F HX  98
TOPEKA FORBES  SUNNY     91  71  51 S18       29.92F HX  97
$$



USA.gov is the U.S. government's official web portal to all federal, state and local government web resources and services.